Lapse_Rate
5.7 5.7 5.5 5.5 5.6 5.7 5.8 5.5 5.4 5.4 5.4 5.3 5.5 5.7 6.0 6.2 5.7 5.6 5.4 5.3 5.2 5.2 5.7 5.7 5.8 5.7 5.8 6.1 6.2 6.3 6.2 6.2 6.2 6.2 6.1 5.9 5.7 5.7
5.9 5.9 5.7 5.5 5.6 5.7 5.8 5.8 5.6 5.7 5.8 5.4 5.3 5.5 5.7 5.8 5.6 5.8 5.6 5.7 5.6 5.5 5.5 5.3 5.5 5.6 5.6 5.6 5.8 6.0 6.1 6.0 6.0 6.1 6.1 6.0 5.8 5.7
5.8 6.0 6.0 5.9 5.7 5.6 5.5 5.5 5.5 5.6 6.0 5.8 5.8 5.6 5.8 5.7 5.6 5.4 5.5 5.7 5.9 5.5 5.4 5.2 5.4 5.6 5.6 5.6 5.6 5.8 6.0 6.0 5.9 6.0 6.0 5.9 5.9 5.9
5.9 5.9 5.8 5.8 6.0 5.9 5.8 5.7 5.7 5.6 5.7 5.8 5.9 5.9 6.0 5.8 5.7 5.8 5.7 5.5 5.5 5.2 5.3 5.5 5.7 5.7 5.7 5.8 5.8 5.8 6.0 5.9 5.8 5.9 6.0 6.0 5.9 5.9
5.9 6.0 5.9 6.0 5.9 5.8 5.8 5.7 5.7 5.7 6.0 6.2 6.0 6.0 6.0 5.9 5.9 5.8 5.6 5.9 5.7 5.6 5.7 5.9 5.8 5.5 5.6 5.8 5.9 5.9 5.8 5.5 5.5 5.6 5.7 5.7 5.7 5.7
5.6 5.6 5.7 5.8 5.9 5.7 5.7 5.7 5.6 5.7 5.8 6.1 6.2 6.1 6.1 6.1 6.1 5.9 5.8 5.7 5.7 5.6 5.6 5.4 5.2 5.4 5.6 5.7 5.7 5.9 6.0 5.8 5.6 5.5 5.5 5.6 5.5 5.4
5.6 5.5 5.4 5.5 5.5 5.6 5.6 5.5 5.5 5.5 5.5 5.6 5.8 5.8 5.9 5.8 5.9 5.8 6.0 5.8 5.9 5.8 5.9 5.9 5.9 5.7 5.8 5.9 6.0 6.0 5.9 5.9 5.9 5.7 5.6 5.6 5.6 5.7
5.8 5.7 5.6 5.5 5.4 5.5 5.5 5.6 5.5 5.6 5.6 5.6 5.6 5.7 5.8 5.7 5.5 5.6 6.0 6.1 6.4 6.1 5.9 6.2 6.1 6.3 6.2 5.9 5.8 6.0 5.9 5.8 5.7 5.8 5.9 5.7 5.6 5.5
5.7 5.6 5.6 5.6 5.6 5.7 5.8 5.8 5.8 5.8 5.9 5.7 5.7 5.7 5.7 5.8 5.8 5.8 5.6 5.7 6.2 6.4 5.9 6.3 6.2 6.5 6.7 6.4 5.9 5.7 5.7 5.7 5.8 5.8 5.8 5.8 5.7 5.6
6.1 5.9 5.9 5.8 5.8 5.8 5.8 5.8 5.7 5.7 5.7 5.9 6.0 6.1 6.0 6.0 6.0 6.1 6.0 5.9 5.8 5.8 5.7 6.1 6.2 6.3 6.1 5.9 5.8 5.7 5.5 5.6 5.6 5.6 5.7 5.7 5.7 5.8
6.0 6.0 6.0 6.0 6.0 6.1 6.1 6.0 5.9 5.8 5.8 5.8 5.8 5.9 6.0 5.9 5.9 6.0 6.2 6.0 6.2 6.1 5.7 5.7 6.1 6.0 6.1 6.2 6.0 5.7 5.6 5.6 5.9 6.0 5.8 6.0 5.9 5.8
6.3 6.2 6.2 6.1 6.0 6.1 6.2 6.1 6.2 6.1 6.2 6.0 6.0 6.0 6.0 6.1 5.8 5.8 6.0 6.0 6.1 6.4 6.3 5.9 6.1 5.8 6.2 6.3 6.2 6.1 5.9 5.8 5.8 6.0 6.1 5.9 6.0 6.0
6.1 5.9 5.9 6.0 6.1 6.0 6.0 5.9 6.0 6.2 6.2 6.2 6.2 6.1 6.0 6.0 6.0 5.8 5.9 5.8 5.8 6.1 6.4 6.2 6.4 6.3 6.1 6.4 6.7 6.4 6.2 5.9 5.8 5.8 5.9 6.0 5.9 5.9
6.0 6.0 6.0 5.8 5.9 5.8 5.8 5.9 5.9 6.0 6.0 6.0 6.1 6.1 6.1 6.1 6.0 6.0 5.9 5.8 5.7 5.7 5.8 5.7 5.8 6.0 6.1 6.3 6.3 6.5 6.4 6.1 5.8 5.7 5.8 6.0 6.0 5.7
6.4 6.4 6.3 6.1 6.0 5.8 5.9 5.9 5.9 6.0 6.1 6.0 6.0 5.9 5.8 5.8 5.9 5.7 5.5 5.3 5.3 5.4 5.6 5.6 5.6 5.8 5.9 5.8 6.0 6.3 6.2 6.4 6.2 5.9 5.9 5.9 5.8 5.5
6.4 6.5 6.6 6.5 6.4 6.3 6.1 6.0 5.9 5.9 5.9 5.8 5.7 5.7 5.6 5.6 5.6 5.4 5.5 5.6 5.3 5.5 5.5 5.5 5.5 5.4 5.7 5.8 5.9 6.2 6.3 6.2 6.6 6.2 6.0 6.0 5.8 5.7
6.1 6.0 6.0 6.0 6.1 6.2 6.3 6.3 6.2 6.0 5.7 5.6 5.6 5.8 5.8 5.8 5.8 5.7 5.6 5.6 5.7 5.9 6.0 5.8 5.5 5.5 5.6 5.7 5.8 5.9 6.4 6.6 6.9 6.8 6.3 5.8 5.8 5.7
6.0 5.8 5.7 5.8 6.0 6.1 6.2 6.1 6.1 6.0 5.9 5.8 5.7 5.8 5.8 5.8 5.6 5.4 5.2 5.3 5.4 5.6 5.7 5.6 5.5 5.6 5.6 5.7 5.8 6.0 6.1 6.3 6.5 6.6 6.6 6.1 5.9 6.1
5.9 5.9 5.9 5.8 5.8 5.9 6.0 6.1 6.0 6.0 6.0 5.9 5.8 5.8 5.6 5.4 5.2 5.4 5.1 5.1 5.1 5.1 5.1 5.3 5.3 5.4 5.6 5.8 6.1 5.8 5.5 5.7 6.0 6.2 6.4 6.2 6.1 6.4
5.6 5.6 5.7 5.8 5.8 5.8 5.7 5.6 5.7 5.7 5.8 5.8 5.8 5.6 5.3 5.1 4.9 4.8 4.9 4.9 4.9 4.9 5.0 5.1 5.1 5.4 5.4 5.7 5.8 6.4 6.1 6.0 6.2 6.2 6.4 6.3 6.1 6.1
5.8 5.8 5.8 5.9 5.8 5.7 5.7 5.8 5.9 5.9 6.0 6.0 5.9 5.7 5.4 5.2 4.9 4.8 4.8 4.8 5.0 4.9 5.0 5.2 5.2 5.2 5.2 5.5 5.6 6.3 6.6 6.0 6.0 6.2 6.3 6.2 6.0 6.0
5.9 6.1 6.1 6.0 5.9 5.8 5.9 5.9 5.8 5.7 5.6 5.6 5.6 5.5 5.4 5.3 5.3 5.1 5.0 5.0 5.0 4.8 4.9 5.0 5.1 5.3 5.3 5.4 5.7 6.1 6.4 6.4 6.1 6.5 6.2 6.2 5.9 5.9
6.2 6.2 6.1 6.1 6.0 5.9 5.9 5.9 5.9 5.8 5.7 5.7 5.6 5.4 5.4 5.3 5.1 5.1 5.2 4.8 4.4 4.7 4.8 5.0 5.1 5.2 5.5 5.7 5.5 5.9 5.8 5.9 6.0 5.8 5.8 5.9 5.9 5.8
Wind_Speed
5 4 4 3 4 4 3 3 4 2 2 3 3 4 8 12 15 14 15 19 26 30 32 32 32 32 33 33 32 31 30 30 28 27 28 27 26 24
4 5 4 3 4 4 4 4 3 4 3 4 4 4 5 7 12 15 15 16 20 25 30 33 33 32 31 31 30 30 30 30 30 28 27 26 26 26
5 5 6 5 4 3 3 3 4 4 4 3 4 3 4 5 6 11 14 12 16 25 27 25 28 28 27 28 27 28 28 29 30 28 27 27 26 28
6 5 7 3 6 5 4 5 4 5 4 5 3 3 5 5 4 5 6 13 13 18 25 26 27 28 29 29 30 30 30 30 29 29 28 27 27 28
6 6 7 5 5 4 4 4 4 4 4 4 4 3 4 3 3 4 5 5 12 19 23 28 28 27 29 29 29 30 31 32 31 31 31 29 28 27
5 5 5 5 6 5 5 5 4 4 3 4 4 4 4 3 2 3 5 3 4 6 13 17 19 19 22 25 26 27 29 31 31 30 30 31 30 29
4 3 3 4 7 7 3 4 3 3 3 4 4 2 3 3 4 2 3 3 4 4 4 4 4 5 11 16 18 20 23 26 28 29 30 31 31 31
4 5 5 7 6 7 5 7 6 3 3 3 3 5 7 4 3 3 4 2 5 2 3 3 3 4 5 10 19 21 20 24 26 27 28 29 29 30
3 4 5 3 6 6 6 6 7 6 9 5 6 4 5 5 3 3 4 4 5 4 2 8 3 4 4 11 19 22 23 24 25 25 26 27 28 29
4 5 5 5 5 5 4 4 5 5 5 4 6 7 7 7 5 6 5 5 4 5 4 6 3 4 4 9 19 24 26 27 28 27 27 27 28 27
5 5 5 5 8 10 5 5 6 6 7 12 11 10 13 14 12 4 6 6 7 6 3 3 3 5 4 8 8 22 28 29 27 26 26 26 25 23
5 5 5 3 5 7 5 5 6 7 7 9 9 7 7 7 12 8 6 9 6 5 5 4 2 2 4 3 6 7 8 19 22 21 22 23 20 9
3 4 4 6 8 11 8 5 6 5 8 6 7 7 8 6 6 6 7 8 6 7 4 3 4 2 4 7 4 3 4 4 3 5 16 18 18 16
4 4 5 12 13 11 8 10 11 9 4 4 4 6 6 7 7 6 6 7 9 11 9 5 4 4 5 10 11 3 4 5 4 4 4 7 15 18
3 7 10 10 10 7 8 10 7 3 3 3 4 5 4 6 7 5 6 7 7 8 12 10 8 9 8 12 13 10 4 3 4 5 4 5 5 4
8 5 6 7 7 7 8 8 7 7 7 6 5 4 5 3 5 4 5 6 4 8 7 12 10 10 11 12 11 13 9 6 3 4 5 4 4 6
5 5 7 7 8 8 8 8 7 7 7 8 6 8 8 7 6 6 6 6 6 7 9 8 6 9 10 14 12 11 11 9 8 8 4 6 5 7
6 6 6 7 7 7 8 7 7 9 7 7 7 7 8 8 9 10 6 6 8 9 9 9 9 8 8 9 16 11 11 9 8 7 6 8 9 7
5 5 5 6 6 6 7 7 7 6 7 6 6 7 7 8 10 9 9 9 8 7 8 8 8 9 10 12 8 17 9 7 8 7 8 9 10 10
5 4 4 4 4 4 5 5 6 6 7 7 7 7 7 7 8 8 8 9 9 10 10 8 7 9 10 12 9 7 18 10 7 9 8 7 8 10
2 2 2 3 3 4 4 4 4 5 6 6 6 6 6 6 7 7 8 12 12 9 10 10 9 14 9 8 7 10 8 18 14 9 4 6 6 3
2 2 3 3 3 4 4 4 4 4 5 5 6 6 6 6 7 8 8 9 9 9 10 10 11 11 6 7 12 14 9 6 9 20 14 11 4 4
4 4 4 4 4 4 4 4 4 4 4 4 5 6 7 7 7 7 8 8 9 9 10 10 9 9 9 9 11 8 6 5 2 4 4 17 25 21
Wind_Direction
244 239 219 223 202 203 180 166 163 275 298 294 266 229 235 241 245 242 238 242 238 232 231 233 236 235 236 238 240 242 244 244 244 244 247 248 250 254
235 245 243 227 225 201 203 187 198 186 236 218 252 247 223 231 247 240 245 251 257 247 239 237 236 238 239 237 236 237 239 243 242 241 243 245 247 246
234 228 245 230 237 229 219 187 201 176 222 277 237 224 231 228 235 237 242 243 250 249 248 254 252 247 241 239 236 236 237 239 241 238 237 242 245 248
238 240 249 242 243 229 207 225 217 195 197 243 257 253 218 225 224 218 228 236 232 246 243 246 247 245 244 241 237 234 234 234 235 236 236 236 239 242
232 231 245 245 256 243 232 233 226 221 208 220 254 246 249 221 259 236 235 233 236 244 246 246 247 248 243 241 241 239 239 237 235 235 236 237 238 242
253 252 264 258 255 261 243 231 229 232 217 221 242 252 252 266 216 256 282 236 272 254 252 251 252 250 249 245 241 241 240 240 239 237 237 238 239 240
350 324 279 269 255 250 257 271 237 237 230 239 258 232 241 250 236 227 238 259 270 231 256 256 236 237 251 250 248 244 241 241 238 238 239 239 240 239
336 329 325 312 315 323 303 260 236 238 252 218 243 247 270 240 232 240 262 280 288 222 221 270 183 247 250 234 242 242 242 241 241 240 242 241 239 240
323 305 306 300 321 310 313 313 310 278 237 251 267 238 260 234 230 258 247 250 261 272 208 278 193 245 237 242 246 248 246 244 242 240 240 239 238 237
335 312 297 307 18 12 0 357 336 318 304 270 233 254 252 262 229 246 250 249 269 267 206 266 209 247 242 243 249 251 248 248 248 247 244 240 236 235
348 360 358 82 28 19 16 347 322 307 313 311 304 282 276 275 258 267 262 272 282 271 217 245 257 273 237 263 245 244 245 246 245 243 242 239 234 233
332 349 80 29 24 8 339 318 304 300 308 316 312 306 289 282 273 214 240 250 250 275 230 200 254 208 293 248 242 241 240 251 250 247 245 242 236 225
312 318 310 325 327 312 287 263 247 271 287 282 283 287 290 281 269 251 224 230 241 251 233 186 266 251 233 283 269 263 225 231 230 251 242 240 221 202
300 300 298 313 307 299 291 266 268 274 261 267 274 278 276 279 277 265 251 237 239 252 270 213 251 237 264 277 277 271 249 239 212 228 221 226 223 223
319 319 318 317 315 318 315 313 317 315 284 265 263 265 261 267 280 281 280 267 258 255 251 246 247 260 260 269 271 272 254 248 212 224 194 204 200 187
345 336 344 3 12 5 10 5 359 358 349 342 318 286 282 297 291 276 277 281 276 281 255 243 249 252 263 261 266 267 254 249 217 226 222 201 199 201
339 10 20 19 18 11 12 9 8 5 4 351 344 342 331 321 307 297 282 282 271 278 284 288 253 247 256 263 263 262 264 251 245 253 203 241 219 216
50 35 23 19 14 3 3 3 5 0 356 350 348 348 341 335 331 324 291 274 281 285 282 284 289 288 272 251 228 260 261 251 246 236 220 245 256 234
48 38 25 21 8 6 6 5 353 350 343 348 345 345 338 335 334 328 326 323 307 293 288 290 277 271 277 274 270 211 241 244 237 242 230 227 248 258
49 41 33 19 360 357 357 355 350 350 350 345 342 343 339 332 330 330 326 323 319 314 305 290 280 277 271 272 277 267 210 235 228 243 245 237 244 271
14 26 346 327 326 329 324 322 323 329 336 341 339 333 329 331 326 322 317 317 315 314 314 313 314 293 282 275 257 265 259 217 232 230 224 225 238 236
250 270 279 288 302 309 320 320 318 321 329 336 338 332 327 325 323 323 323 321 318 312 307 306 315 315 285 278 268 267 269 269 226 239 244 233 216 236
241 245 267 270 273 283 298 313 308 301 303 311 326 330 334 329 322 318 316 313 312 314 315 318 321 315 310 312 299 292 266 280 283 294 270 227 241 254